Weather History for Newberry, MI

Change the Weather History Date:

Tuesday, January 29, 2013

  Actual Average Record
Temperature  
Mean Temperature 32 °F -  
Max Temperature 37 °F 22 °F 45 °F (1914)
Min Temperature 28 °F 8 °F -16 °F (1951)
Degree Days  
Heating Degree Days 32    
Moisture  
Dew Point 32 °F    
Average Humidity 95    
Maximum Humidity 100    
Minimum Humidity 87    
Precipitation  
Precipitation 0.00 in - - ()
Sea Level Pressure  
Sea Level Pressure 29.63 in    
Wind  
Wind Speed 9 mph (SE)    
Max Wind Speed 17 mph    
Max Gust Speed 22 mph    
Visibility 5 miles    
Events Fog , Rain , Snow    
Averages and records for this station are not official NWS values.
T = Trace of Precipitation, MM = Missing Value Source: NWS Daily Summary

Daily Weather History Graph

Daily Weather History Graph

Search for Another Location

Airport:

Trip Planner

Search our weather history database for the weather conditions in past years. The results will help you decide how hot, cold, wet, or windy it might be!

Date:

Astronomy

Jan. 29, 2013 Rise Set
Actual Time 8:08 AM EST 5:42 PM EST
Civil Twilight 7:35 AM EST 6:14 PM EST
Nautical Twilight 6:59 AM EST 6:51 PM EST
Astronomical Twilight 6:24 AM EST 7:26 PM EST
Moon 8:51 PM EST (1/29) 8:52 AM EST (1/29)
Length of Visible Light 10h 38m
Length of Day
9h 34m
Waning Gibbous, 94% of the Moon is Illuminated
Jan 29
Waning Gibbous
Feb 3
Last Quarter
Feb 10
New
Feb 17
First Quarter
Feb 25
Full

Hourly Weather History & Observations

Time (EST) Temp. Windchill Dew Point Humidity Pressure Visibility Wind Dir Wind Speed Gust Speed Precip Events Conditions
12:14 AM 28.4 °F 22.2 °F 26.6 °F 93% 29.93 in 10.0 mi ESE 5.8 mph - N/A   Overcast
12:35 AM 28.4 °F 21.2 °F 26.6 °F 93% 29.92 in 10.0 mi ESE 6.9 mph - N/A   Overcast
12:59 AM 28.4 °F 22.2 °F 26.6 °F 93% 29.91 in 10.0 mi SE 5.8 mph - N/A   Overcast
1:15 AM 28.4 °F 21.2 °F 26.6 °F 93% 29.90 in 10.0 mi SE 6.9 mph - N/A   Overcast
1:35 AM 28.4 °F 21.2 °F 28.4 °F 100% 29.90 in 10.0 mi SSE 6.9 mph - N/A   Overcast
1:54 AM 28.4 °F 19.7 °F 28.4 °F 100% 29.89 in 10.0 mi SSE 9.2 mph - N/A   Overcast
2:15 AM 30.2 °F 21.3 °F 28.4 °F 93% 29.87 in 10.0 mi SE 10.4 mph - N/A   Overcast
2:34 AM 28.4 °F 20.4 °F 28.4 °F 100% 29.86 in 10.0 mi SE 8.1 mph - N/A   Overcast
2:54 AM 28.4 °F 19.1 °F 28.4 °F 100% 29.84 in 10.0 mi SE 10.4 mph - N/A   Overcast
3:15 AM 28.4 °F 19.7 °F 28.4 °F 100% 29.85 in 10.0 mi SSE 9.2 mph - N/A   Overcast
3:55 AM 30.2 °F 21.3 °F 28.4 °F 93% 29.81 in 10.0 mi ESE 10.4 mph - N/A   Overcast
4:15 AM 30.2 °F 21.9 °F 28.4 °F 93% 29.81 in 10.0 mi SE 9.2 mph - N/A   Overcast
4:34 AM 30.2 °F 19.8 °F 28.4 °F 93% 29.80 in 10.0 mi SE 13.8 mph - N/A   Overcast
5:00 AM 30.2 °F 20.8 °F 28.4 °F 93% 29.77 in 10.0 mi ESE 11.5 mph - N/A   Overcast
5:15 AM 30.2 °F 19.3 °F 28.4 °F 93% 29.77 in 10.0 mi SE 15.0 mph 20.7 mph N/A   Overcast
5:34 AM 30.2 °F 18.9 °F 28.4 °F 93% 29.77 in 10.0 mi SE 16.1 mph 19.6 mph N/A   Overcast
6:15 AM 30.2 °F 20.2 °F 28.4 °F 93% 29.76 in 10.0 mi SSE 12.7 mph 21.9 mph N/A   Overcast
6:34 AM 30.2 °F 20.2 °F 28.4 °F 93% 29.71 in 10.0 mi ESE 12.7 mph 21.9 mph N/A   Overcast
6:55 AM 30.2 °F 20.2 °F 28.4 °F 93% 29.70 in 10.0 mi ESE 12.7 mph - N/A   Overcast
7:14 AM 30.2 °F 19.3 °F 28.4 °F 93% 29.69 in 7.0 mi ESE 15.0 mph 20.7 mph N/A   Overcast
7:35 AM 30.2 °F 20.2 °F 28.4 °F 93% 29.69 in 7.0 mi ESE 12.7 mph - N/A Snow Light Snow
7:54 AM 30.2 °F 21.9 °F 30.2 °F 100% 29.68 in 7.0 mi ESE 9.2 mph - N/A   Overcast
8:14 AM 32.0 °F 23.0 °F 30.2 °F 93% 29.67 in 7.0 mi ESE 11.5 mph 16.1 mph N/A Snow Light Snow
8:35 AM 32.0 °F 23.0 °F 30.2 °F 93% 29.68 in 4.0 mi SE 11.5 mph 16.1 mph N/A   Overcast
8:54 AM 32.0 °F 22.5 °F 30.2 °F 93% 29.66 in 1.5 mi ESE 12.7 mph - N/A Snow Light Snow
9:15 AM 33.8 °F 26.4 °F 30.2 °F 87% 29.65 in 1.2 mi ESE 9.2 mph - N/A Snow Light Snow
9:35 AM 33.8 °F 27.7 °F 30.2 °F 87% 29.65 in 1.8 mi SE 6.9 mph - N/A Snow Light Snow
9:54 AM 33.8 °F 25.3 °F 32.0 °F 93% 29.63 in 3.0 mi ESE 11.5 mph - N/A Snow Light Snow
10:15 AM 33.8 °F 24.3 °F 32.0 °F 93% 29.62 in 2.0 mi ESE 13.8 mph - N/A Snow Light Snow
10:35 AM 33.8 °F 24.8 °F 32.0 °F 93% 29.60 in 1.5 mi ESE 12.7 mph - N/A Snow Light Snow
10:54 AM 33.8 °F 23.2 °F 32.0 °F 93% 29.58 in 1.2 mi ESE 17.3 mph 20.7 mph N/A Snow Light Snow
11:15 AM 33.8 °F 24.8 °F 32.0 °F 93% 29.59 in 1.2 mi SE 12.7 mph 17.3 mph N/A   Overcast
11:35 AM 33.8 °F 25.3 °F 32.0 °F 93% 29.59 in 1.0 mi SE 11.5 mph - N/A   Overcast
11:54 AM 33.8 °F 24.8 °F 33.8 °F 100% 29.58 in 1.0 mi SE 12.7 mph - N/A   Overcast
12:15 PM 33.8 °F 25.3 °F 33.8 °F 100% 29.54 in 1.0 mi SE 11.5 mph - N/A   Overcast
12:34 PM 35.6 °F 28.0 °F 33.8 °F 93% 29.52 in 1.2 mi SE 10.4 mph - N/A   Overcast
12:54 PM 35.6 °F 28.0 °F 33.8 °F 93% 29.52 in 1.0 mi SSE 10.4 mph 16.1 mph N/A   Overcast
1:15 PM 35.6 °F 27.1 °F 35.6 °F 100% 29.50 in 0.5 mi SSE 12.7 mph - N/A Fog Fog
1:34 PM 35.6 °F 27.5 °F 35.6 °F 100% 29.50 in 0.5 mi SSE 11.5 mph - N/A Fog Fog
1:55 PM 35.6 °F 28.6 °F 35.6 °F 100% 29.50 in 0.5 mi SSE 9.2 mph - N/A Fog Fog
2:15 PM 37.4 °F 30.3 °F 35.6 °F 93% 29.50 in 0.5 mi South 10.4 mph - N/A Fog Fog
2:34 PM 37.4 °F 32.1 °F 35.6 °F 93% 29.49 in 0.5 mi SSE 6.9 mph - N/A Fog Fog
2:55 PM 37.4 °F 32.1 °F 35.6 °F 93% 29.49 in 0.8 mi SSE 6.9 mph - N/A   Overcast
3:15 PM 37.4 °F 33.8 °F 35.6 °F 93% 29.49 in 0.8 mi SSE 4.6 mph - N/A Rain Light Rain
3:34 PM 37.4 °F 33.8 °F 35.6 °F 93% 29.49 in 1.0 mi SSE 4.6 mph - N/A   Overcast
3:55 PM 37.4 °F 33.8 °F 35.6 °F 93% 29.50 in 1.0 mi SSE 4.6 mph - N/A   Overcast
4:15 PM 37.4 °F 32.1 °F 35.6 °F 93% 29.50 in 1.0 mi South 6.9 mph - N/A   Overcast
4:55 PM 37.4 °F - 37.4 °F 100% 29.49 in 0.2 mi Calm Calm - N/A Fog Fog
5:14 PM 37.4 °F 33.8 °F 35.6 °F 93% 29.51 in 0.2 mi SSW 4.6 mph - N/A Fog Fog
5:35 PM 37.4 °F 34.9 °F 35.6 °F 93% 29.52 in 0.2 mi WSW 3.5 mph - N/A Fog Fog
5:55 PM 37.4 °F 33.8 °F 35.6 °F 93% 29.53 in 0.2 mi West 4.6 mph - N/A Fog Fog
6:14 PM 37.4 °F 32.8 °F 35.6 °F 93% 29.53 in 0.5 mi West 5.8 mph - N/A Fog Fog
6:35 PM 37.4 °F 32.1 °F 35.6 °F 93% 29.53 in 4.0 mi WNW 6.9 mph - N/A   Overcast
6:55 PM 37.4 °F 32.1 °F 35.6 °F 93% 29.53 in 2.5 mi NW 6.9 mph - N/A   Overcast
7:14 PM 35.6 °F 29.9 °F 35.6 °F 100% 29.54 in 3.0 mi NW 6.9 mph - N/A   Overcast
7:35 PM 35.6 °F 30.7 °F 35.6 °F 100% 29.56 in 3.0 mi NW 5.8 mph - N/A   Overcast
7:55 PM 35.6 °F 31.7 °F 33.8 °F 93% 29.55 in 7.0 mi NNW 4.6 mph - N/A   Overcast
8:14 PM 35.6 °F 31.7 °F 33.8 °F 93% 29.54 in 7.0 mi NNW 4.6 mph - N/A Rain Light Rain
8:35 PM 35.6 °F 31.7 °F 33.8 °F 93% 29.54 in 2.5 mi NW 4.6 mph - N/A   Overcast
8:54 PM 35.6 °F 30.7 °F 33.8 °F 93% 29.54 in 1.2 mi NW 5.8 mph - N/A   Overcast
9:14 PM 35.6 °F 30.7 °F 33.8 °F 93% 29.53 in 7.0 mi NW 5.8 mph - N/A   Overcast
9:35 PM 35.6 °F 31.7 °F 33.8 °F 93% 29.55 in 10.0 mi NW 4.6 mph - N/A Rain Light Rain
9:54 PM 33.8 °F 30.8 °F 33.8 °F 100% 29.53 in 7.0 mi NNW 3.5 mph - N/A Snow Light Snow
10:15 PM 33.8 °F 29.6 °F 33.8 °F 100% 29.52 in 10.0 mi NNW 4.6 mph - N/A Rain Light Rain
10:35 PM 33.8 °F 30.8 °F 33.8 °F 100% 29.51 in 10.0 mi NW 3.5 mph - N/A   Overcast
10:54 PM 33.8 °F 28.6 °F 33.8 °F 100% 29.51 in 10.0 mi NNW 5.8 mph - N/A   Overcast
11:15 PM 33.8 °F 27.7 °F 33.8 °F 100% 29.51 in 10.0 mi NNW 6.9 mph - N/A   Overcast
11:35 PM 33.8 °F 27.0 °F 32.0 °F 93% 29.50 in 10.0 mi NW 8.1 mph - N/A   Overcast
11:54 PM 33.8 °F 26.4 °F 32.0 °F 93% 29.49 in 10.0 mi NNW 9.2 mph - N/A   Overcast